CAPE
1550 1658 1982 2154 1431 768 1022 550 313 156 625 817 1385 1367 955 634 411 571 793 767 772 643
2585 2122 2032 1898 1829 1906 1768 1620 725 800 672 154 949 1710 1294 837 571 320 555 833 894 718
1782 2598 2554 2264 2571 2737 2422 2385 1019 700 672 577 1445 1930 1573 1455 1068 702 839 1009 997 1083
2242 2278 2429 2626 2345 2296 2335 2109 1920 1390 1109 1647 2402 2195 2028 1483 1143 1025 756 1013 965 928
1992 2080 2029 2298 2282 2134 2180 2130 2234 2295 2575 2589 2598 2169 2162 1672 1559 1174 852 697 899 937
1790 1867 1799 1604 1679 1601 1827 2337 2823 2745 2874 2969 2807 2750 2625 2286 1875 1252 597 469 932 944
972 972 975 991 846 1562 2308 2562 3009 3137 2827 3018 2910 2736 2547 2590 1962 1702 1449 832 961 1340
3209 3072 2820 2827 2706 2681 2547 2771 2787 2827 2961 3011 2690 2740 2452 2566 2253 479 154 702 1394 1234
2273 2172 2634 2423 2350 2515 2685 2350 2331 2308 2378 2297 2563 2748 2396 1105 916 41 0 0 922 1206
1026 1233 1458 1832 1892 1796 1785 1645 1688 1726 1945 2167 2306 2144 1279 691 888 0 0 1 914 1020
316 334 323 328 346 416 1173 1531 1490 1591 1942 2078 2256 2257 574 607 590 895 884 922 931 845
124 100 67 15 78 244 233 190 505 766 928 1107 1427 1887 411 177 198 319 366 381 538 888
0 0 0 0 0 0 0 0 0 73 109 390 618 853 1185 24 156 690 677 610 548 725
0 0 0 0 0 0 0 0 0 0 0 0 0 0 0 0 33 257 259 306 249 39
CIN
-117 -90 -72 -54 -90 -225 -129 -207 -269 -322 -250 -219 -122 -67 -82 -143 -166 -108 -65 -62 -55 -67
-96 -91 -98 -100 -55 -57 -64 -118 -245 -245 -307 -352 -241 -92 -92 -120 -143 -131 -84 -67 -61 -73
-164 -91 -94 -95 -67 -54 -66 -58 -221 -285 -289 -277 -185 -95 -87 -84 -118 -123 -89 -71 -70 -63
-128 -118 -98 -74 -87 -80 -70 -71 -77 -158 -207 -146 -81 -90 -72 -100 -107 -106 -113 -60 -65 -73
-140 -129 -122 -101 -98 -101 -103 -91 -75 -65 -54 -57 -53 -85 -90 -96 -66 -84 -114 -114 -70 -70
-165 -151 -148 -143 -131 -131 -114 -99 -61 -49 -50 -35 -36 -38 -47 -69 -66 -77 -137 -139 -69 -64
-272 -262 -231 -193 -195 -128 -68 -95 -55 -42 -39 -37 -40 -34 -36 -37 -76 -67 -61 -111 -100 -55
-63 -55 -61 -48 -56 -62 -58 -60 -50 -35 -31 -29 -35 -29 -34 -26 -41 -158 -212 -75 -37 -64
-148 -135 -90 -85 -80 -64 -56 -66 -50 -32 -25 -24 -15 -5 -20 -169 -112 -305 0 0 -154 -136
-303 -239 -183 -103 -75 -73 -65 -78 -62 -61 -28 -17 -16 -13 -95 -206 -116 0 0 -138 -125 -141
-399 -371 -368 -355 -334 -297 -108 -47 -48 -42 -27 -20 -15 -8 -186 -172 -163 -75 -52 -58 -52 -69
-493 -508 -547 -641 -494 -348 -348 -362 -174 -109 -73 -40 -19 -8 -146 -200 -205 -164 -136 -107 -90 -60
0 0 0 0 0 0 0 0 0 -374 -315 -132 -46 -45 -20 -50 -185 -50 -47 -39 -44 -32
0 0 0 0 0 0 0 0 0 0 0 0 0 0 0 0 -185 -154 -99 -52 -31 -67
Wind_Speed
12 7 5 4 4 5 6 12 10 16 10 8 7 9 7 6 6 5 5 7 5 3
7 8 7 7 5 4 5 6 13 15 10 7 7 10 10 7 7 6 6 6 6 4
10 7 7 6 6 5 5 1 10 9 7 7 7 9 9 6 6 8 5 5 6 5
6 7 6 6 6 6 6 6 6 10 8 9 10 9 8 7 7 9 8 6 6 8
7 7 7 7 9 8 7 7 8 7 9 9 8 10 10 9 8 9 8 7 7 7
9 8 8 8 8 9 8 8 8 8 7 8 8 7 9 9 8 7 7 7 8 8
6 3 6 5 6 5 7 8 8 8 8 7 9 8 8 9 8 8 7 9 10 9
6 5 6 4 3 4 4 2 4 5 6 7 6 6 7 7 7 6 6 8 8 11
7 7 6 6 6 6 5 6 4 3 3 5 4 9 11 7 4 13 14 15 16 9
9 8 8 7 6 5 3 2 3 4 4 5 5 8 6 6 4 14 14 13 11 13
7 7 7 7 7 7 6 6 5 5 5 4 4 5 10 10 6 6 7 9 12 13
6 6 6 7 7 5 6 5 5 6 6 5 6 7 8 7 6 6 8 8 8 7
4 4 4 4 4 3 3 5 5 6 6 8 6 7 8 10 5 6 5 5 6 11
2 3 2 2 2 3 4 5 6 6 7 7 9 11 13 10 3 3 3 3 4 1
Wind_Direction
207 208 214 212 185 224 190 186 172 207 227 200 196 191 199 198 202 187 228 236 215 225
183 197 203 210 201 238 254 140 180 203 205 213 200 189 185 199 197 190 214 221 216 219
199 197 203 193 211 213 241 256 173 203 218 205 201 186 186 198 189 193 203 212 224 213
192 204 203 206 212 218 219 234 195 193 214 207 199 184 184 191 194 197 197 200 217 232
195 201 206 207 221 219 213 208 216 202 195 204 187 190 188 194 205 201 203 203 213 220
192 197 205 201 211 230 208 208 199 201 200 193 194 188 198 199 196 186 198 200 209 224
211 247 235 230 275 258 228 209 195 194 203 207 196 201 206 202 193 192 205 207 212 213
79 87 78 87 34 25 25 52 229 220 213 216 205 217 222 209 208 65 350 287 227 221
39 36 55 48 31 21 9 17 10 328 272 262 250 230 242 254 161 140 202 247 257 227
33 31 23 20 14 5 4 6 339 300 286 271 256 257 186 227 224 180 204 225 246 259
33 27 19 21 13 9 1 345 328 329 329 320 296 274 161 181 194 207 217 232 245 244
37 26 15 5 351 356 6 354 349 333 334 335 321 301 191 184 205 224 235 239 251 237
57 28 344 343 13 344 347 330 336 332 328 323 313 301 281 200 217 230 242 245 255 253
37 351 28 32 327 314 314 318 322 320 316 315 3 5 8 337 287 285 257 243 271 60